STARLINK-1183, 45088

Orbit data source: Space-Track

STARLINK-1183, 45088 is a payload satellite owned by SpaceX/Seattle (US) in LEO that was launched on Wed, 29 Jan 2020 UTC via an FALCON 9 launch vehicle from the Air Force Eastern Test Range (AFETR). Payload-class satellites include a variety of spacecraft equipped with specific instruments for various scientific and technological missions. These include communications satellites like Starlink; space stations such as the ISS; scientific satellites like the Hubble; Earth observation satellites from companies like Planet Labs, Umbra, and HawkEye 360; GPS; miniature CubeSats for education and research; and military/defense satellites.

Loading next visibility...
Identifier
45088, 2020-006AW
Orbit
LEO
Country
Flag of USUS
Related business
Manufacturer
SpaceX/Seattle
Mission
Operational Commercial Communications
Bus & Motor
STARLINK, Unknown motor
Mass
260 kg wet, ~248 kg dry
Launch date (UTC)
2020-01-29 (6 years ago)
Launch vehicle
FALCON 9
Launch site
Air Force Eastern Test Range (AFETR)
Object type
Payload
Rocket body
Debris
Shape & HBR
Box + 1 Pan, 10.1 m
Radar Cross Section
13.562 m², Large (>1 m²)

Expand to show TLE details & history
Last TLE update: 9 hours ago

TLE from 9 hours ago
0 STARLINK-1183
1 45088U 20006AW  26062.80915219  .00000433  00000-0  26764-4 0  9993
2 45088  53.1608 269.8902 0001724 139.7032 220.4097 15.30206942336182
Epoch: 2026-03-03T19:25Z
TLE epoch observation values (Epoch: 2026-03-03T19:25:10.749Z)
Latitude
0.00001°
Longitude
177.01253°
Altitude
476.994 km
Speed
7.628 km/s
True Right ascension
17h 59m 33s
True Declination
0° 00' 00"
Sunlit
Object was in daylight at epoch
Visualization orbit readout
Latitude
Unknown
Longitude
Unknown
Altitude
Unknown
Speed
Unknown
Apparent Right ascension
Unknown
Apparent Declination
Unknown
Sunlit
N/A
Visualization observer readout
Local Sidereal Time
07:44:42
Azimuth
Unknown
Elevation
Unknown
Doppler factor
Unknown
Orbital elements
Apogee altitude
476.632 km
Perigee altitude
474.269 km
Semi-major axis
6,853.588 km
Eccentricity
0.00017
Inclination
53.1608°
RAAN
269.8902°
Arg. of periapsis
139.7032°
True anomaly
220.3969°
Mean anomaly
220.4097°
Eccentric anomaly
220.4033°
Mean motion
3.82531 °/min
Orbital period
94.11 mins
BSTAR
0.000026764
Loading maneuver chart data...
Computing Atmospheric mass density...
Loading historical data...
Loading historical data...
Loading historical data...
Loading historical data...
Loading historical data...
Loading historical data...
Loading historical data...

Documentation

Showing up to 5 results
|